Regional Weather Roundup
Issued by NWS

Home | Current Version | Previous Version | Text Only | Print | Product List | Glossary On
Versions: 1 2 3 4 5 6 7 8 9 10 11 12 13 14 15 16 17 18 19 20 21 22 23 24 25 26 27 28 29 30 31 32 33 34 35 36 37 38 39 40 41 42 43 44 45 46 47 48 49 50
000
ASUS43 KDTX 230701
RWRMI
MICHIGAN HOURLY REGIONAL WEATHER ROUNDUP
NATIONAL WEATHER SERVICE DETROIT/PONTIAC MI
300 AM EDT SAT AUG 23 2014

NOTE: "FAIR" INDICATES FEW OR NO CLOUDS BELOW 12,000 FEET WITH NO
SIGNIFICANT WEATHER AND/OR OBSTRUCTION TO VISIBILITY.

MIZ047>049-052>055-059>063-066>070-074>076-081>083-230800-
SOUTHEAST LOWER MICHIGAN

CITY           SKY/WX    TMP DP  RH WIND       PRES   REMARKS
ADRIAN         MOCLDY    70  64  81 E3        30.01F
ALMA           CLEAR     64  63  96 NE5       30.04S
ANN ARBOR      CLOUDY    70  63  78 NE3       30.01F
BAD AXE        FOG       62  62 100 CALM      30.04F VSB 1/2
CARO           CLEAR     60  60  99 CALM      30.03F
DETROIT CITY   PTCLDY    71  61  70 N3        30.01F
DETROIT        CLOUDY    72  60  66 E5        30.01F
FLINT          MOCLDY    68  61  78 E5        30.03S
GROSSE ILE     CLOUDY    70  64  83 NE3       29.99F
HILLSDALE      PTCLDY    71  70  96 CALM      30.02S
HOWELL         MOCLDY    68  64  87 CALM      30.02F

CITY           SKY/WX    TMP DP  RH WIND       PRES   REMARKS
JACKSON        CLOUDY    71  67  87 CALM      30.02S
LAMBERTVILLE   CLEAR     70  64  83 CALM      30.00F
LANSING        CLOUDY    72  66  81 NE3       30.02F
LAPEER         FOG       61  60  96 CALM      30.03F VSB 1/4
MASON          CLOUDY    70  67  91 CALM      30.02F
MONROE         CLEAR     70  63  78 N3        29.98F
MT. CLEMENS    MOCLDY    64  62  94 NW3       30.00F
PONTIAC        CLOUDY    68  60  75 NE3       30.01F
PORT HOPE        N/A     64  62  93 NE5       30.03
PORT HURON     FOG       64  64 100 CALM      30.02S VSB 1/2
TRI CITIES     CLEAR     64  61  90 NE3       30.04F
TROY           PTCLDY    68  62  79 CALM      30.03F
SAGINAW HB     CLEAR     61  61 100 CALM      30.04R
$$
MIZ043>046-050>051-056>058-064>065-071>073-077>080-230800-
SOUTHWEST LOWER MICHIGAN

CITY           SKY/WX    TMP DP  RH WIND       PRES   REMARKS
BATTLE CREEK   PTCLDY    72  68  87 NE3       30.02S
BENTON HARBOR  CLEAR     70  69  97 NE3       29.97F FOG
BIG RAPIDS     CLEAR     62  62  99 CALM      30.04S
COLDWATER      CLOUDY    74  73  94 CALM      30.00S FOG
FREMONT        FAIR      67  63  87 E3        30.02S
HOLLAND        CLEAR     70  68  93 E5        30.00F
GRAND RAPIDS   MOCLDY    70  69  97 NE6       30.02S
IONIA          CLOUDY    66  65  94 NE5       30.02S
KALAMAZOO      PTCLDY    70  68  93 CALM      30.00F FOG
LUDINGTON      CLOUDY    69  65  87 SE6       30.02F
MARSHALL       MOCLDY    70  69  98 NE3       30.00S FOG
MOUNT PLEASANT CLEAR     63  62  97 N3        30.04F
MUSKEGON       PTCLDY    71  66  84 E7        30.01S
SOUTH HAVEN    PTCLDY    73  73 100 E5        29.99S FOG
$$
MIZ016>042-230800-
NORTHERN LOWER MICHIGAN

CITY           SKY/WX    TMP DP  RH WIND       PRES   REMARKS
ALPENA         FOG       59  59 100 CALM      30.06F VSB 3/4
BEAVER ISLAND  CLOUDY    67  65  94 E5        30.04F
BELLAIRE       CLOUDY    65  64  94 CALM      30.04S
CADILLAC       CLOUDY    64  62  93 E3        30.05F
CHARLEVOIX     MOCLDY    71  65  83 E7        30.07S
FRANKFORT      CLOUDY    72  65  78 SE5       30.02S
GAYLORD        CLEAR     65  61  87 CALM      30.07S
GRAYLING       CLEAR     62  62  98 CALM      30.07R
HARBOR SPRINGS PTCLDY    67  63  87 NE3       30.06R
HOUGHTON LAKE  PTCLDY    62  61  96 CALM      30.06S
MANISTEE       PTCLDY    66  63  88 E5        30.03S
OSCODA         FOG       61  61 100 N3        30.04S VSB 1/2
PELLSTON       MOCLDY    61  60  97 CALM      30.06S FOG
ROGERS CITY    PTCLDY    61  61 100 CALM      30.07S FOG
TRAVERSE CITY  CLOUDY    71  65  81 CALM      30.02S
$$
MIZ007>008-015-230800-
EASTERN UPPER MICHIGAN

CITY           SKY/WX    TMP DP  RH WIND       PRES   REMARKS
KINROSS        CLEAR     63  63 100 E3        30.07F
MACKINAC ISLAN PTCLDY    63  63  99 E5        30.05F
NEWBERRY       CLOUDY    63  61  94 CALM      30.06S
S. S. MARIE    PTCLDY    64  61  90 CALM      30.07F FOG
$$
MIZ004>006-011>014-085-230800-
CENTRAL UPPER MICHIGAN

CITY           SKY/WX    TMP DP  RH WIND       PRES   REMARKS
MANISTIQUE     CLOUDY    67  64  91 E3        30.03S
ESCANABA       CLOUDY    66  63  88 CALM      30.02S
MENOMINEE      CLOUDY    66  64  94 CALM      30.00F
SAWYER-GWINN   RAIN      67  65  93 E3        30.05S
$$
MIZ001>003-009>011-084-230800-
WESTERN UPPER MICHIGAN

CITY           SKY/WX    TMP DP  RH WIND       PRES   REMARKS
IRON MOUNTAIN  CLOUDY    68  66  93 SE3       30.03R FOG
HOUGHTON       CLOUDY    63  60  90 E8        30.05S
COPPER HARBOR    N/A     55  52  89 CALM      30.06R
$$

ABBREVIATIONS USED IN REMARKS
   TC - TEMPERATURE IN CELSIUS
  WCI - WIND CHILL INDEX
   HX - HEAT INDEX
  VSB - VISIBILITY



USA.gov is the U.S. government's official web portal to all federal, state and local government web resources and services.